Location: Okie-Tex Star Party
(36.8978°N, 102.9520°W)
Time: 06:07:11
(UTC-06:00)

Amateur Radio Satellites - All Passes

Search period start: 22 December 2014 05:37
Search period end: 23 December 2014 05:37
Location: Okie-Tex Star Party, 36.8978°N, 102.9520°W

Satellite Date Start Highest point End Downlink Frequencies (MHz)
Time Altitude Azimuth
AO-7 22 Dec 05:39:07 05:47:28 74° 290° (WNW) 05:55:45 29.400- 29.500
CUBESAT XI-V 22 Dec 05:42:48 05:45:31 16° 66° (ENE) 05:48:14 437.345
MOZHAYETS 4 22 Dec 05:50:45 05:54:47 29° 264° (W) 05:58:50
CUTE-I 22 Dec 05:53:37 05:55:46 12° 91° (E) 05:57:54 437.470
GONETS M04 22 Dec 05:54:03 06:02:42 62° 91° (E) 06:11:22
PRISM 22 Dec 05:58:18 06:02:22 48° 73° (ENE) 06:06:26 437.425
JAS-2 22 Dec 06:08:55 06:14:27 84° 284° (WNW) 06:19:38 435.910
VERMONT LUNAR 22 Dec 06:19:58 06:23:25 50° 9° (N) 06:26:51 437.305
SO-50 22 Dec 06:30:03 06:34:58 87° 60° (ENE) 06:39:53 436.795
STRAND 1 22 Dec 06:30:34 06:35:25 45° 72° (ENE) 06:40:16 437.568
PHONESAT 2.4 22 Dec 06:41:51 06:45:24 50° 8° (N) 06:48:56 2401.200-2431.200
Cubesat XI-IV 22 Dec 06:58:14 07:03:29 58° 101° (E) 07:08:42 437.490
CUBESAT XI-V 22 Dec 07:18:01 07:22:32 49° 261° (W) 07:27:03 437.345
CUTE-I 22 Dec 07:31:00 07:36:17 70° 286° (WNW) 07:41:34 437.470
AO-7 22 Dec 07:34:29 07:38:49 15° 309° (NW) 07:43:09 29.400- 29.500
PRISM 22 Dec 07:36:23 07:38:07 12° 267° (W) 07:39:52 437.425
GONETS M04 22 Dec 07:52:57 08:00:03 27° 290° (WNW) 08:07:11
VERMONT LUNAR 22 Dec 07:58:19 08:01:47 56° 205° (SSW) 08:05:14 437.305
MaSat-1 22 Dec 08:10:51 08:11:13 10° 107° (ESE) 08:11:36 437.345
STRAND 1 22 Dec 08:11:17 08:14:47 19° 266° (W) 08:18:18 437.568
PHONESAT 2.4 22 Dec 08:20:34 08:24:09 61° 204° (SSW) 08:27:44 2401.200-2431.200
BRITE-PL 22 Dec 08:32:56 08:35:39 15° 93° (E) 08:38:27 437.365/2234.400
Cubesat XI-IV 22 Dec 08:39:47 08:43:03 17° 297° (WNW) 08:46:20 437.490
CANX-2 22 Dec 08:41:51 08:44:10 14° 92° (E) 08:46:29 2200.000
GOMX 1 22 Dec 08:50:17 08:53:19 16° 93° (E) 08:56:26 467.674
COMPASS 1 22 Dec 08:58:31 09:00:47 14° 92° (E) 09:03:03 437.405
SEEDS 22 Dec 09:05:44 09:09:00 21° 95° (E) 09:12:14 437.485
DOVE 4 22 Dec 09:07:09 09:10:27 18° 94° (E) 09:13:50 437.250
HO-68 22 Dec 09:09:29 09:16:03 38° 98° (E) 09:22:34 435.675
CUTE 1.7 + AOD 2 22 Dec 09:11:12 09:14:57 28° 96° (E) 09:18:40 437.475
CINEMA 3 22 Dec 09:20:00 09:22:25 14° 92° (E) 09:24:52 145.822/145.860
DANDE 22 Dec 09:22:42 09:25:04 17° 83° (E) 09:27:51 436.750
DX 1 22 Dec 09:36:33 09:38:01 12° 92° (E) 09:39:29 434.975-435.025
VERMONT LUNAR 22 Dec 09:38:37 09:39:35 11° 218° (SW) 09:40:33 437.305
TIGRISAT 22 Dec 09:40:35 09:43:03 15° 65° (ENE) 09:45:33 435.000
MaSat-1 22 Dec 09:43:17 09:44:14 12° 300° (WNW) 09:45:11 437.345
DUCHIFAT 1 22 Dec 09:49:16 09:50:21 11° 64° (ENE) 09:51:25 145.980
Oscar 11 22 Dec 09:53:54 09:57:36 27° 96° (E) 10:01:17 145.826/435.025
AAUSAT CUBESAT 2 22 Dec 09:55:46 09:59:58 60° 100° (E) 10:04:08 437.432
PHONESAT 2.4 22 Dec 10:00:50 10:02:22 12° 218° (SW) 10:03:53 2401.200-2431.200
QB50P2 22 Dec 10:02:29 10:05:08 17° 67° (ENE) 10:07:47 145.880/145.840
CUSAT 1 22 Dec 10:03:10 10:06:44 74° 96° (E) 10:11:34 437.405
UKube-1 22 Dec 10:03:48 10:07:19 24° 96° (E) 10:10:49 .
UNISAT 6 22 Dec 10:09:08 10:12:59 31° 70° (ENE) 10:16:56 437.425
BRITE-PL 22 Dec 10:09:37 10:14:19 55° 285° (WNW) 10:19:23 437.365/2234.400
POLYITAN 1 22 Dec 10:11:27 10:14:35 21° 68° (ENE) 10:17:44 437.675
NANOSAT C BR1 22 Dec 10:11:59 10:15:07 21° 68° (ENE) 10:18:15 145.865
YUBILEINY 22 Dec 10:13:10 10:19:31 22° 68° (ENE) 10:25:50 435.215
CANX-2 22 Dec 10:16:12 10:20:17 42° 287° (WNW) 10:24:20 2200.000
CUBEBUG 2 22 Dec 10:26:06 10:30:34 42° 99° (E) 10:35:04 437.445
QB50P1 22 Dec 10:26:07 10:29:47 30° 71° (ENE) 10:33:27 145.935-145.965
GOMX 1 22 Dec 10:26:53 10:31:35 51° 286° (WNW) 10:36:35 467.674
ZACube-1 22 Dec 10:28:50 10:32:55 32° 97° (E) 10:37:01 437.345
COMPASS 1 22 Dec 10:32:40 10:36:41 41° 287° (WNW) 10:40:40 437.405
DELFI C3 22 Dec 10:37:34 10:41:42 75° 101° (ESE) 10:45:47 145.870
VELOX 1 22 Dec 10:37:50 10:41:02 19° 95° (E) 10:44:14 145.980
RS-15 22 Dec 10:38:07 10:46:29 26° 103° (ESE) 10:54:46 29.354- 29.394
50 SAT 22 Dec 10:39:04 10:41:46 17° 94° (E) 10:44:29 437.505
ANTELSAT 22 Dec 10:40:39 10:45:00 73° 76° (ENE) 10:49:29 437.575/2403.000
SEEDS 22 Dec 10:41:06 10:44:47 28° 289° (WNW) 10:48:27 437.485
DOVE 4 22 Dec 10:43:41 10:48:19 46° 286° (WNW) 10:53:12 437.250
CUTE 1.7 + AOD 2 22 Dec 10:47:24 10:50:42 22° 291° (WNW) 10:53:58 437.475
POPSAT HIP 1 22 Dec 10:54:29 10:58:39 66° 75° (ENE) 11:02:50 437.405
FUNcube-1 22 Dec 10:54:39 10:59:11 62° 101° (E) 11:03:44 145.935
CINEMA 3 22 Dec 10:55:09 10:59:51 57° 285° (WNW) 11:04:43 145.822/145.860
HO-68 22 Dec 10:57:13 11:03:39 38° 295° (WNW) 11:10:03 435.675
O/OREOS (USA 219) 22 Dec 10:57:45 11:02:16 69° 69° (ENE) 11:06:47 437.305
UWE-3 22 Dec 11:00:11 11:04:50 86° 102° (ESE) 11:09:32 435.000/436.395/437.385
DANDE 22 Dec 11:05:09 11:08:10 24° 291° (WNW) 11:11:56 436.750
DX 1 22 Dec 11:10:18 11:14:32 53° 286° (WNW) 11:18:46 434.975-435.025
BUGSAT 1 22 Dec 11:11:18 11:15:24 84° 76° (ENE) 11:19:28 437.445
HUMSAT D 22 Dec 11:14:49 11:19:07 60° 101° (E) 11:23:25 437.325/437.525
TIGRISAT 22 Dec 11:15:13 11:19:22 45° 261° (W) 11:23:39 435.000
CUBEBUG 1 22 Dec 11:20:55 11:24:16 21° 95° (E) 11:27:36 437.445
AISAT 22 Dec 11:21:10 11:25:35 64° 101° (ESE) 11:29:59 437.250
DUCHIFAT 1 22 Dec 11:21:33 11:25:40 58° 259° (W) 11:29:49 145.980
Oscar 11 22 Dec 11:30:10 11:33:37 23° 291° (WNW) 11:37:04 145.826/435.025
AAUSAT CUBESAT 2 22 Dec 11:34:10 11:35:05 11° 296° (WNW) 11:35:59 437.432
QB50P2 22 Dec 11:36:50 11:40:44 37° 262° (W) 11:44:40 145.880/145.840
UKube-1 22 Dec 11:39:48 11:43:23 26° 291° (WNW) 11:46:58 .
JUGNU 22 Dec 11:45:47 11:47:53 12° 170° (S) 11:49:58 437.505
UNISAT 6 22 Dec 11:46:33 11:49:48 20° 266° (W) 11:53:07 437.425
POLYITAN 1 22 Dec 11:46:42 11:50:20 28° 263° (W) 11:54:00 437.675
NANOSAT C BR1 22 Dec 11:47:10 11:50:48 28° 263° (W) 11:54:27 145.865
QB50P1 22 Dec 12:02:38 12:05:40 19° 265° (W) 12:08:44 145.935-145.965
CUBEBUG 2 22 Dec 12:03:45 12:06:55 18° 293° (WNW) 12:10:07 437.445
ZACube-1 22 Dec 12:05:34 12:09:05 22° 291° (WNW) 12:12:38 437.345
YUBILEINY 22 Dec 12:08:27 12:17:06 73° 267° (W) 12:25:44 435.215
TISAT 1 22 Dec 12:11:40 12:14:40 19° 95° (E) 12:17:39 437.305
50 SAT 22 Dec 12:13:17 12:17:03 33° 288° (WNW) 12:20:47 437.505
VELOX 1 22 Dec 12:13:41 12:17:39 33° 289° (WNW) 12:21:36 145.980
SPROUT 22 Dec 12:21:03 12:24:28 23° 95° (E) 12:27:53 437.525
ESTCUBE 1 22 Dec 12:22:56 12:27:24 67° 285° (WNW) 12:31:50 437.505/2401.250
FUNcube-1 22 Dec 12:33:10 12:34:59 12° 295° (WNW) 12:36:48 145.935
ISS 22 Dec 12:43:54 12:46:50 30° 133° (SE) 12:49:46 145.825
RS-15 22 Dec 12:46:43 12:57:39 75° 302° (WNW) 13:08:39 29.354- 29.394
BEESAT 3 22 Dec 12:47:26 12:51:03 31° 113° (ESE) 12:54:43 437.485
HUMSAT D 22 Dec 12:52:58 12:54:23 11° 295° (WNW) 12:55:48 437.325/437.525
SRMSAT 22 Dec 12:53:58 12:55:06 11° 168° (SSE) 12:56:14 437.500
CUBEBUG 1 22 Dec 12:56:53 13:00:36 29° 290° (WNW) 13:04:19 437.445
AISAT 22 Dec 13:00:20 13:01:38 11° 296° (WNW) 13:02:56 437.250
AIST 2 22 Dec 13:06:21 13:09:28 20° 110° (ESE) 13:12:38 435.215
Oscar 19 22 Dec 13:06:45 13:11:35 43° 71° (ENE) 13:16:27 437.125/150
PCSat 22 Dec 13:09:39 13:14:16 29° 108° (ESE) 13:18:54 145.827
ITAMSAT 1 22 Dec 13:27:46 13:31:57 25° 67° (ENE) 13:36:07 435.822/435.867
BEESAT 2 22 Dec 13:28:36 13:32:42 85° 120° (ESE) 13:36:53 435.950
JUGNU 22 Dec 13:32:53 13:36:05 15° 180° (S) 13:39:17 437.505
Gurwin Techsat 1B 22 Dec 13:35:20 13:38:54 19° 65° (ENE) 13:42:28 435.225
TISAT 1 22 Dec 13:46:46 13:50:30 31° 289° (WNW) 13:54:15 437.305
SWISSCUBE 22 Dec 13:51:36 13:56:02 38° 98° (E) 14:00:26 437.505
ITUPSAT 1 22 Dec 13:52:58 13:57:20 35° 98° (E) 14:01:40 437.325
SPROUT 22 Dec 13:56:53 14:00:30 27° 290° (WNW) 14:04:06 437.525
AUBIESAT-1 22 Dec 14:04:16 14:05:19 11° 94° (E) 14:06:21 437.475
YUBILEINY 22 Dec 14:10:29 14:12:13 11° 285° (WNW) 14:13:57 435.215
BEESAT 22 Dec 14:15:57 14:20:42 65° 102° (ESE) 14:25:24 436.000
ISS 22 Dec 14:20:33 14:23:23 26° 328° (NNW) 14:26:14 145.825
BEESAT 3 22 Dec 14:26:01 14:29:15 22° 310° (NW) 14:32:31 437.485
M-CUBED/EXP-1 PRIME 22 Dec 14:29:22 14:32:54 26° 100° (E) 14:36:10 437.505
STARS 22 Dec 14:39:56 14:42:17 14° 93° (E) 14:44:37 437.465
SRMSAT 22 Dec 14:40:18 14:43:27 15° 178° (S) 14:46:35 437.500
AIST 2 22 Dec 14:43:59 14:47:51 34° 306° (NW) 14:51:46 435.215
AO-7 22 Dec 14:44:55 14:51:24 26° 57° (ENE) 14:57:54 29.400- 29.500
KKS-1 22 Dec 14:46:55 14:50:41 26° 96° (E) 14:54:26 437.445
Oscar 19 22 Dec 14:47:22 14:51:04 20° 266° (W) 14:54:47 437.125/150
PCSat 22 Dec 14:52:37 14:57:32 35° 304° (NW) 15:02:28 145.827
RS-15 22 Dec 15:04:07 15:12:16 23° 329° (NNW) 15:20:32 29.354- 29.394
ITAMSAT 1 22 Dec 15:06:31 15:11:14 35° 262° (W) 15:15:57 435.822/435.867
BEESAT 2 22 Dec 15:10:43 15:11:32 11° 317° (NW) 15:12:22 435.950
Gurwin Techsat 1B 22 Dec 15:13:16 15:18:25 52° 260° (W) 15:23:36 435.225
HORYU 2 22 Dec 15:14:09 15:18:33 64° 75° (ENE) 15:23:00 437.375
JUGNU 22 Dec 15:22:22 15:24:17 12° 191° (S) 15:26:11 437.505
SWISSCUBE 22 Dec 15:30:09 15:33:36 20° 293° (WNW) 15:37:01 437.505
ITUPSAT 1 22 Dec 15:31:23 15:34:58 22° 293° (WNW) 15:38:33 437.325
AUBIESAT-1 22 Dec 15:36:36 15:40:41 49° 292° (WNW) 15:44:24 437.475
BEESAT 22 Dec 15:56:00 15:57:57 12° 297° (WNW) 15:59:53 436.000
AIST 1 22 Dec 15:57:10 15:59:49 16° 87° (E) 16:02:27
M-CUBED/EXP-1 PRIME 22 Dec 16:04:27 16:07:45 22° 298° (WNW) 16:10:51 437.505
GONETS M04 22 Dec 16:08:03 16:15:09 27° 70° (ENE) 16:22:09
STARS 22 Dec 16:14:42 16:18:57 46° 287° (WNW) 16:23:12 437.465
JAS-2 22 Dec 16:16:51 16:23:39 37° 69° (ENE) 16:29:54 435.910
KKS-1 22 Dec 16:23:32 16:27:12 25° 291° (WNW) 16:30:52 437.445
SRMSAT 22 Dec 16:29:22 16:31:48 13° 189° (S) 16:34:14 437.500
AO-7 22 Dec 16:35:12 16:43:27 68° 255° (WSW) 16:51:48 29.400- 29.500
HORYU 2 22 Dec 16:55:21 16:55:36 10° 269° (W) 16:55:51 437.375
CUTE-I 22 Dec 17:12:53 17:16:23 18° 64° (ENE) 17:19:53 437.470
RS-15 22 Dec 17:25:26 17:30:47 14° 6° (N) 17:36:12 29.354- 29.394
AIST 1 22 Dec 17:33:05 17:37:07 36° 281° (WNW) 17:41:10
MOZHAYETS 4 22 Dec 17:47:38 17:52:17 80° 102° (ESE) 17:56:51
JAS-2 22 Dec 18:01:23 18:08:30 41° 262° (W) 18:15:06 435.910
GONETS M04 22 Dec 18:03:55 18:12:28 61° 269° (W) 18:20:55
Cubesat XI-IV 22 Dec 18:18:01 18:23:20 77° 75° (ENE) 18:28:39 437.490
STRAND 1 22 Dec 18:44:25 18:47:53 18° 94° (E) 18:51:20 437.568
CUTE-I 22 Dec 18:50:49 18:56:00 53° 260° (W) 19:01:12 437.470
CUSAT 1 22 Dec 19:03:14 19:06:14 12° 63° (ENE) 19:09:17 437.405
MaSat-1 22 Dec 19:13:36 19:15:32 20° 250° (WSW) 19:17:32 437.345
ISS 22 Dec 19:14:09 19:16:35 19° 28° (NNE) 19:19:01 145.825
CUBESAT XI-V 22 Dec 19:17:06 19:21:34 48° 99° (E) 19:26:00 437.345
PRISM 22 Dec 19:19:01 19:23:09 71° 285° (WNW) 19:27:14 437.425
HO-68 22 Dec 19:36:45 19:42:10 24° 60° (ENE) 19:47:34 435.675
RS-15 22 Dec 19:38:43 19:48:27 32° 41° (NE) 19:58:27 29.354- 29.394
BRITE-PL 22 Dec 19:44:50 19:45:17 10° 64° (ENE) 19:45:44 437.365/2234.400
SEEDS 22 Dec 19:57:46 19:59:25 12° 65° (ENE) 20:01:04 437.485
GOMX 1 22 Dec 19:59:19 20:00:06 10° 64° (ENE) 20:00:52 467.674
Cubesat XI-IV 22 Dec 20:02:26 20:03:56 11° 270° (W) 20:05:26 437.490
DANDE 22 Dec 20:03:09 20:10:05 31° 72° (ENE) 20:17:30 436.750
CUTE 1.7 + AOD 2 22 Dec 20:03:10 20:05:52 17° 67° (ENE) 20:08:34 437.475
DOVE 4 22 Dec 20:13:24 20:14:37 11° 64° (ENE) 20:15:51 437.250
STRAND 1 22 Dec 20:22:25 20:27:15 46° 288° (WNW) 20:32:05 437.568
CUSAT 1 22 Dec 20:42:33 20:50:33 64° 79° (E) 20:58:57 437.405
SO-50 22 Dec 20:42:42 20:47:00 48° 115° (ESE) 20:51:28 436.795
AAUSAT CUBESAT 2 22 Dec 20:45:07 20:48:48 30° 71° (ENE) 20:52:32 437.432
Oscar 11 22 Dec 20:47:33 20:50:19 17° 67° (ENE) 20:53:06 145.826/435.025
ISS 22 Dec 20:50:10 20:53:21 49° 225° (SW) 20:56:30 145.825
CUBESAT XI-V 22 Dec 20:55:58 20:58:34 15° 294° (WNW) 21:01:10 437.345
UKube-1 22 Dec 20:57:43 21:00:27 17° 66° (ENE) 21:03:11 .
CANX-2 22 Dec 21:06:37 21:10:53 81° 258° (WSW) 21:15:12 2200.000
BEESAT 3 22 Dec 21:10:26 21:12:16 13° 45° (NE) 21:14:07 437.485
BRITE-PL 22 Dec 21:19:13 21:23:19 56° 260° (W) 21:27:24 437.365/2234.400
COMPASS 1 22 Dec 21:21:36 21:25:49 83° 258° (WSW) 21:30:05 437.405
HO-68 22 Dec 21:22:10 21:29:16 63° 257° (WSW) 21:36:24 435.675
CUBEBUG 2 22 Dec 21:23:14 21:26:40 25° 70° (ENE) 21:30:10 437.445
ZACube-1 22 Dec 21:24:00 21:26:54 18° 67° (ENE) 21:29:50 437.345
DELFI C3 22 Dec 21:24:04 21:27:47 34° 72° (ENE) 21:31:31 145.870
SEEDS 22 Dec 21:30:35 21:34:44 53° 260° (W) 21:38:55 437.485
GOMX 1 22 Dec 21:33:39 21:37:42 55° 260° (W) 21:41:49 467.674
VELOX 1 22 Dec 21:34:46 21:37:07 14° 65° (ENE) 21:39:28 145.980
CUTE 1.7 + AOD 2 22 Dec 21:37:30 21:41:27 38° 262° (W) 21:45:28 437.475
DANDE 22 Dec 21:45:55 21:53:48 59° 266° (W) 22:02:17 436.750
DOVE 4 22 Dec 21:47:52 21:51:53 52° 260° (W) 21:56:00 437.250
FUNcube-1 22 Dec 21:48:56 21:52:43 34° 72° (ENE) 21:56:36 145.935
RS-15 22 Dec 21:50:41 22:02:01 80° 244° (WSW) 22:13:53 29.354- 29.394
BEESAT 2 22 Dec 21:51:13 21:54:49 27° 52° (NE) 21:58:21 435.950
CINEMA 3 22 Dec 21:55:10 21:59:19 79° 258° (WSW) 22:03:36 145.822/145.860
UWE-3 22 Dec 21:55:36 21:59:38 51° 74° (ENE) 22:03:48 435.000/436.395/437.385
PCSat 22 Dec 22:00:09 22:03:38 17° 48° (NE) 22:07:06 145.827
DX 1 22 Dec 22:03:29 22:07:49 83° 257° (WSW) 22:12:11 434.975-435.025
HUMSAT D 22 Dec 22:05:19 22:08:57 30° 71° (ENE) 22:12:38 437.325/437.525
CUBEBUG 1 22 Dec 22:16:18 22:18:43 15° 66° (ENE) 22:21:09 437.445
AISAT 22 Dec 22:17:16 22:21:26 43° 73° (ENE) 22:25:37 437.250
AAUSAT CUBESAT 2 22 Dec 22:21:29 22:24:29 19° 266° (W) 22:27:31 437.432
Oscar 11 22 Dec 22:22:07 22:26:09 38° 262° (W) 22:30:14 145.826/435.025
SO-50 22 Dec 22:24:31 22:27:49 19° 313° (NW) 22:31:11 436.795
CUSAT 1 22 Dec 22:26:36 22:33:08 28° 273° (W) 22:39:55 437.405
UKube-1 22 Dec 22:32:14 22:36:16 39° 261° (W) 22:40:20 .
ANTELSAT 22 Dec 22:36:02 22:39:28 20° 94° (E) 22:42:53 437.575/2403.000
POPSAT HIP 1 22 Dec 22:44:07 22:46:07 13° 92° (E) 22:48:07 437.405
BEESAT 3 22 Dec 22:46:45 22:50:54 67° 242° (WSW) 22:54:58 437.485
BUGSAT 1 22 Dec 22:57:40 22:59:50 14° 93° (E) 23:02:00 437.445
50 SAT 22 Dec 22:58:49 23:02:48 73° 258° (WSW) 23:06:52 437.505
ZACube-1 22 Dec 22:59:16 23:03:01 32° 263° (W) 23:06:51 437.345
CUBEBUG 2 22 Dec 22:59:58 23:03:18 23° 265° (W) 23:06:42 437.445
DELFI C3 22 Dec 23:00:32 23:03:07 16° 267° (W) 23:05:43 145.870
TISAT 1 22 Dec 23:04:11 23:05:29 11° 65° (ENE) 23:06:46 437.305
AIST 2 22 Dec 23:07:39 23:11:57 79° 60° (ENE) 23:16:10 435.215
VELOX 1 22 Dec 23:09:00 23:13:16 48° 260° (W) 23:17:33 145.980
TIGRISAT 22 Dec 23:09:06 23:13:37 44° 99° (E) 23:18:06 435.000
DUCHIFAT 1 22 Dec 23:09:28 23:13:03 26° 96° (E) 23:16:38 145.980
YUBILEINY 22 Dec 23:11:41 23:18:35 27° 83° (E) 23:25:27 435.215
SPROUT 22 Dec 23:14:34 23:16:50 14° 66° (ENE) 23:19:06 437.525
ESTCUBE 1 22 Dec 23:20:12 23:24:44 85° 76° (ENE) 23:29:17 437.505/2401.250
QB50P2 22 Dec 23:24:32 23:28:34 40° 99° (E) 23:32:36 145.880/145.840
FUNcube-1 22 Dec 23:26:31 23:29:11 17° 267° (W) 23:31:54 145.935
BEESAT 2 22 Dec 23:29:31 23:32:57 25° 248° (WSW) 23:36:20 435.950
NANOSAT C BR1 22 Dec 23:34:08 23:38:18 52° 100° (E) 23:42:28 145.865
POLYITAN 1 22 Dec 23:34:08 23:38:21 53° 100° (E) 23:42:34 437.675
UWE-3 22 Dec 23:35:17 23:36:30 11° 269° (W) 23:37:44 435.000/436.395/437.385
UNISAT 6 22 Dec 23:39:28 23:44:13 84° 284° (WNW) 23:48:56 437.425
HUMSAT D 22 Dec 23:41:54 23:44:47 18° 266° (W) 23:47:41 437.325/437.525
PCSat 22 Dec 23:42:11 23:47:35 71° 246° (WSW) 23:52:56 145.827
QB50P1 22 Dec 23:48:56 23:53:12 80° 102° (ESE) 23:57:29 145.935-145.965
CUBEBUG 1 22 Dec 23:50:31 23:54:42 45° 261° (W) 23:58:53 437.445
AISAT 22 Dec 23:55:45 23:58:14 15° 267° (W) 00:00:43 437.250
RS-15 23 Dec 00:06:27 00:12:39 16° 261° (W) 00:19:01 29.354- 29.394
ANTELSAT 23 Dec 00:11:58 00:16:20 38° 288° (WNW) 00:20:40 437.575/2403.000
POPSAT HIP 1 23 Dec 00:18:08 00:22:13 46° 287° (WNW) 00:26:19 437.405
BUGSAT 1 23 Dec 00:31:41 00:35:28 38° 287° (WNW) 00:39:16 437.445
TISAT 1 23 Dec 00:36:40 00:40:47 56° 259° (W) 00:44:56 437.305
DUCHIFAT 1 23 Dec 00:45:24 00:48:46 23° 291° (WNW) 00:52:09 145.980
TIGRISAT 23 Dec 00:46:52 00:49:59 18° 294° (WNW) 00:53:05 435.000
SPROUT 23 Dec 00:48:26 00:52:31 44° 261° (W) 00:56:37 437.525
AUBIESAT-1 23 Dec 00:49:41 00:52:36 16° 60° (ENE) 00:55:31 437.475
SWISSCUBE 23 Dec 00:56:12 01:00:31 35° 70° (ENE) 01:04:51 437.505
ITUPSAT 1 23 Dec 00:57:49 01:02:04 33° 70° (ENE) 01:06:20 437.325
QB50P2 23 Dec 01:01:34 01:04:08 16° 293° (WNW) 01:06:42 145.880/145.840
YUBILEINY 23 Dec 01:06:10 01:14:44 59° 281° (W) 01:23:18 435.215
O/OREOS (USA 219) 23 Dec 01:07:39 01:12:04 63° 292° (WNW) 01:16:30 437.305
NANOSAT C BR1 23 Dec 01:11:55 01:13:42 12° 295° (WNW) 01:15:30 145.865
POLYITAN 1 23 Dec 01:12:01 01:13:49 12° 295° (WNW) 01:15:36 437.675
M-CUBED/EXP-1 PRIME 23 Dec 01:15:38 01:19:54 31° 65° (ENE) 01:24:12 437.505
BEESAT 23 Dec 01:20:13 01:24:55 58° 74° (ENE) 01:29:37 436.000
Oscar 19 23 Dec 01:21:34 01:25:07 18° 93° (E) 01:28:39 437.125/150
KKS-1 23 Dec 01:43:51 01:46:57 19° 67° (ENE) 01:50:03 437.445
AUBIESAT-1 23 Dec 02:22:15 02:27:00 60° 255° (WSW) 02:31:50 437.475
VERMONT LUNAR 23 Dec 02:23:24 02:26:47 46° 154° (SSE) 02:30:12 437.305
SWISSCUBE 23 Dec 02:34:44 02:38:24 22° 265° (W) 02:42:05 437.505
ITUPSAT 1 23 Dec 02:36:09 02:39:57 23° 265° (W) 02:43:47 437.325
PHONESAT 2.4 23 Dec 02:49:56 02:53:26 48° 154° (SSE) 02:56:56 2401.200-2431.200
M-CUBED/EXP-1 PRIME 23 Dec 02:50:39 02:54:47 28° 260° (W) 02:58:59 437.505
Oscar 19 23 Dec 02:59:41 03:04:40 47° 288° (WNW) 03:09:36 437.125/150
BEESAT 23 Dec 03:00:56 03:03:04 13° 268° (W) 03:05:13 436.000
STARS 23 Dec 03:09:22 03:13:43 70° 258° (WSW) 03:18:07 437.465
HORYU 2 23 Dec 03:09:32 03:12:07 15° 93° (E) 03:14:42 437.375
KKS-1 23 Dec 03:19:16 03:23:18 35° 262° (W) 03:27:23 437.445
ITAMSAT 1 23 Dec 03:21:06 03:26:17 83° 285° (WNW) 03:31:27 435.822/435.867
Gurwin Techsat 1B 23 Dec 03:31:37 03:36:57 77° 103° (ESE) 03:42:14 435.225
AIST 1 23 Dec 03:42:34 03:46:37 40° 79° (E) 03:50:36
VERMONT LUNAR 23 Dec 04:01:37 04:05:06 54° 349° (N) 04:08:34 437.305
PHONESAT 2.4 23 Dec 04:28:33 04:32:07 55° 349° (N) 04:35:41 2401.200-2431.200
AO-7 23 Dec 04:39:28 04:47:31 49° 101° (ESE) 04:55:29 29.400- 29.500
HORYU 2 23 Dec 04:44:40 04:48:58 44° 288° (WNW) 04:53:15 437.375
MOZHAYETS 4 23 Dec 04:47:14 04:51:46 56° 74° (ENE) 04:56:20
GONETS M04 23 Dec 05:06:13 05:13:47 33° 85° (E) 05:21:20
Gurwin Techsat 1B 23 Dec 05:14:00 05:16:12 13° 299° (WNW) 05:18:24 435.225
JAS-2 23 Dec 05:14:31 05:19:11 29° 95° (E) 05:23:38 435.910
SO-50 23 Dec 05:16:29 05:20:38 27° 50° (NE) 05:24:46 436.795
AIST 1 23 Dec 05:21:48 05:23:50 13° 274° (W) 05:25:53
